Whidbey Island, WA
on Thursday, December 27, 2012

Thursday
Previous Day Next Day
Daily Summary
 ActualAverageRecord
Temperature
Mean Temperature °F °F  
Max Temperature 44°F 43°F 52°F (2005)
Min Temperature 39°F 33°F 23°F (1996)
Degree Days
Heating Degree Days 24    
Moisture
Dew Point 39°F   
Average Humidity 89    
Maximum Humidity 93    
Minimum Humidity 86    
Precipitation
Precipitation 0.02 in in in ()
Wind
Wind Speed 5 mph   
Max Wind Speed 9 mph   
Max Gust Speed mph   
Visibility 8 miles   
Events Fog , Rain   
Averages and records for this station are not official NWS values.
Key: T is trace of precipitation, MM is missing value
Source: NWS Daily Summary
Seasonal Weather Averages
Time(PST)TemperatureDew PointHumidity Pressure Visibility Wind DirectionWind SpeedGust SpeedPrecipitationEvents Conditions
12:56 AM 42.1°F 39.0°F 89% 29.94 in 7.0 miles NE 4.6 mph - 0.00 in Rain Light Rain
1:56 AM 41.0°F 37.9°F 89% 29.97 in 7.0 miles North 6.9 mph - 0.00 in   Overcast
2:56 AM 41.0°F 37.9°F 89% 29.99 in 6.0 miles North 5.8 mph - 0.00 in Rain Light Rain
3:56 AM 41.0°F 37.9°F 89% 30.01 in 5.0 miles North 3.5 mph - 0.00 in Rain Light Rain
4:56 AM 41.0°F 37.9°F 89% 30.03 in 2.0 miles Calm Calm - 0.01 in Rain Light Rain
5:56 AM 41.0°F 37.9°F 89% 30.04 in 2.0 miles Calm Calm - 0.01 in Rain Light Rain
6:56 AM 39.9°F 37.9°F 93% 30.05 in 2.0 miles ESE 3.5 mph - 0.00 in Rain Light Rain
7:03 AM 39.2°F 37.4°F 93% 30.04 in 2.0 miles ESE 4.6 mph - 0.00 in   Overcast
7:56 AM 39.9°F 37.0°F 89% 30.07 in 7.0 miles SE 3.5 mph - 0.00 in Fog Patches of Fog
8:56 AM 41.0°F 37.9°F 89% 30.10 in 8.0 miles ESE 3.5 mph - N/A   Overcast
9:34 AM 41.0°F 39.2°F 93% 30.10 in 8.0 miles ESE 4.6 mph - 0.00 in Rain Light Rain
9:56 AM 41.0°F 39.0°F 93% 30.12 in 8.0 miles ESE 5.8 mph - 0.00 in Rain Light Rain
10:17 AM 42.8°F 39.2°F 87% 30.11 in 8.0 miles ESE 6.9 mph - 0.00 in   Overcast
10:56 AM 42.1°F 39.9°F 92% 30.12 in 9.0 miles ESE 4.6 mph - 0.00 in   Overcast
11:02 AM 42.8°F 39.2°F 87% 30.11 in 8.0 miles ESE 5.8 mph - N/A   Overcast
11:56 AM 43.0°F 39.9°F 89% 30.12 in 8.0 miles South 5.8 mph - N/A   Overcast
12:43 PM 42.8°F 39.2°F 87% 30.12 in 10.0 miles SSE 4.6 mph - N/A   Overcast
12:56 PM 43.0°F 39.9°F 89% 30.13 in 8.0 miles SE 5.8 mph - N/A   Overcast
1:03 PM 42.8°F 39.2°F 87% 30.12 in 10.0 miles SE 3.5 mph - N/A   Overcast
1:12 PM 44.6°F 41.0°F 87% 30.11 in 8.0 miles SE 5.8 mph - 0.00 in Rain Light Rain
1:31 PM 44.6°F 41.0°F 87% 30.11 in 8.0 miles SE 6.9 mph - 0.00 in   Overcast
1:56 PM 44.1°F 41.0°F 89% 30.13 in 10.0 miles SSE 9.2 mph - 0.00 in   Mostly Cloudy
2:56 PM 44.1°F 41.0°F 89% 30.14 in 10.0 miles SE 6.9 mph - N/A   Mostly Cloudy
3:56 PM 43.0°F 39.9°F 89% 30.14 in 10.0 miles SE 4.6 mph - N/A   Mostly Cloudy
4:56 PM 43.0°F 39.0°F 86% 30.16 in 10.0 miles SE 6.9 mph - N/A   Overcast
5:56 PM 41.0°F 37.0°F 86% 30.15 in 10.0 miles ESE 6.9 mph - N/A   Mostly Cloudy
6:56 PM 41.0°F 37.9°F 89% 30.16 in 10.0 miles ESE 5.8 mph - N/A   Overcast
7:56 PM 41.0°F 37.9°F 89% 30.15 in 10.0 miles ESE 3.5 mph - N/A   Overcast
8:56 PM 41.0°F 37.0°F 86% 30.15 in 10.0 miles East 5.8 mph - N/A   Mostly Cloudy
9:56 PM 41.0°F 37.0°F 86% 30.16 in 10.0 miles East 4.6 mph - N/A   Mostly Cloudy
10:56 PM 41.0°F 37.9°F 89% 30.17 in 7.0 miles East 9.2 mph - N/A   Overcast
11:56 PM 41.0°F 37.9°F 89% 30.17 in 7.0 miles East 8.1 mph - N/A   Overcast
Moon Phase
Dec. 27 Dec. 28 Jan. 04 Jan. 11 Jan. 18
Sunrise:08:01 AM (PST) Moon Rise:04:13 PM (PST)12/27
Sunset:04:22 PM (PST) Moon Set:07:13 AM (PST)12/27

Copyright © 2014 The Weather Underground, Inc.